Location: Unspecified
(56.5167°N, 0.0000°E)
Time: 23:22:00
(UTC+02:00)

Resurs 1-4 Rocket - Pass Details

Date: 24 January 2018
Orbit: 799 x 814 km, 98.5° (Epoch: 21 May)

Event Time Altitude Azimuth Distance (km) Brightness Sun altitude
Rises 04:14:43 0° 14° (NNE) 3,336 5.8 -39.7°
Reaches altitude 10° 04:17:07 10° 9° (N) 2,404 4.9 -39.4°
Enters shadow 04:17:22 11° 9° (N) 2,306 4.8 -39.4°
